Погода в Криффе

Великобритания     56°12′45″N   3°25′25″W
темп.,
°C
ветер,
м/с
пор.,
м/с
влажн.,
%
обл.,
%
осадки,
мм/ч
давл.,
гПа
погр.,
м
18 апреля, вс
вс1801:00+4ю1182100 0.0 102610
04:00+3ююз2276100 0.0 102511
07:00+5ююз2373100 0.0 102497
10:00+7зюз4665100 0.0 1025807
13:00+6зюз3581100 0.0 1025579
16:00+7з2570100 0.0 1024478
19:00+7юз0174100 0.0 1025134
22:00+6юв0074100 0.0 102510
19 апреля, пн
пн1901:00+5юв117933 0.0 102410
04:00+3ююз118772 0.0 102310
07:00+4ююз1187100 0.0 102210
10:00+9ююз2469100 0.0 1021500
13:00+12юз5759100 0.0 10201408
16:00+13ююз685299 0.0 10181675
19:00+10юз3671100 0.0 1018426
22:00+7зюз2280100 0.0 101930
20 апреля, вт
вт2001:00+6юз2281100 0.0 101833
04:00+5з3682100 0.0 1018264
07:00+5зюз2391100 0.3 1018296
10:00+6з2389100 0.1 1019439
13:00+8зсз238090 0.1 1020586
16:00+10в2267100 0.3 1019773
19:00+7юв338783 0.8 1022301
22:00+5ююв119120 0.1 102316
21 апреля, ср
ср2101:00+3ссз11914 0.1 102410
04:00+2с11815 0.0 102510
07:00+2с11763 0.0 102512
10:00+7св11585 0.0 1026536
13:00+11ссз01505 0.0 10251233
16:00+12юв12477 0.0 10241545
19:00+8вюв34675 0.0 1025291
22:00+3св228483 0.0 102735
22 апреля, чт
чт2201:00+2св2291100 0.0 102720
04:00+2ссв119293 0.0 102711
07:00+2ссв1188100 0.0 102740
10:00+8юв117094 0.0 1027390
13:00+12ю345517 0.0 10261411
16:00+14ю45497 0.0 10251779
19:00+10вюв347112 0.0 1025295
22:00+5ссв22907 0.0 102613